Date String (YYYY-MM-DD hh:mm:ss) UTC,Instrument flags,absolute air pressure of the measurement (hPa),sample flow rate (lpm),inlet stack bypass flow (lpm),air temperature of the measurement (°C),ambient temperature measured by the external sensor (°C),aerosol sample conditioner tube jacket temperature (°C),OPC LED temperature (°C),internal box temperature (°C),relative humidity of the measurement (%),span deviation,mass concentration of particles derived from Lorenz-Mie calculation of OPC scattering (μg/m³),mass concentration of particles derived from Lorenz-Mie calculation of OPC scattering (μg/m³),mass concentration of particles derived from Lorenz-Mie calculation of OPC scattering (μg/m³)
DateTimeUTC,F1_M11,P_M11,Q1_M11,Q2_M11,T1_M11,T2_M11,T3_M11,T4_M11,T5_M11,U1_M11,ZSPAN_M11,X0_M11,X2_M11,X1_M11
2024-03-02 19:00:00,SystemResetWarning,0815.9,5.00,000.00,024.5,023.8,000.0,032.5,026.2,05.9,0000.0,0008.40,0001.42,0000.92
2024-03-02 19:01:00,SystemResetWarning,0815.8,5.00,000.00,024.5,023.8,000.0,032.5,026.2,05.7,0000.0,0007.52,0001.48,0000.94
2024-03-02 19:02:00,SystemResetWarning,0815.7,5.00,000.00,024.5,023.9,000.0,032.5,026.2,05.6,0000.0,0007.62,0001.53,0000.94
2024-03-02 19:03:00,SystemResetWarning,0815.7,4.99,000.00,024.5,023.9,000.0,032.5,026.2,05.6,0000.0,0007.46,0001.50,0000.91
2024-03-02 19:04:00,SystemResetWarning,0815.6,5.00,000.00,024.5,023.9,000.0,032.5,026.2,05.5,0000.0,0007.05,0001.44,0000.87
2024-03-02 19:05:00,SystemResetWarning,0815.7,5.00,000.00,024.5,023.9,000.0,032.6,026.3,05.5,0000.0,0004.96,0001.31,0000.83
2024-03-02 19:06:00,SystemResetWarning,0815.6,5.00,000.00,024.5,023.9,000.0,032.6,026.3,05.6,0000.0,0003.93,0001.26,0000.79
2024-03-02 19:07:00,SystemResetWarning,0815.6,5.00,000.00,024.5,023.9,000.0,032.6,026.3,05.5,0000.0,0003.82,0001.20,0000.75
2024-03-02 19:08:00,SystemResetWarning,0815.5,5.00,000.00,024.6,023.9,000.0,032.6,026.3,05.6,0000.0,0003.51,0001.16,0000.72
2024-03-02 19:09:00,SystemResetWarning,0815.6,5.00,000.00,024.6,023.9,000.0,032.6,026.3,05.4,0000.0,0002.34,0001.10,0000.69
2024-03-02 19:10:00,SystemResetWarning,0815.5,5.00,000.00,024.6,023.9,000.0,032.7,026.3,05.5,0000.0,0002.16,0001.04,0000.65
2024-03-02 19:11:00,SystemResetWarning,0815.3,5.00,000.00,024.6,023.9,000.0,032.7,026.3,05.5,0000.0,0001.98,0000.98,0000.62
2024-03-02 19:12:00,SystemResetWarning,0815.3,5.01,000.00,024.6,023.9,000.0,032.7,026.3,05.6,0000.0,0001.88,0000.91,0000.60
2024-03-02 19:13:00,SystemResetWarning,0815.5,5.01,000.00,024.6,023.9,000.0,032.7,026.3,05.7,0000.0,0001.89,0000.88,0000.57
2024-03-02 19:14:00,SystemResetWarning,0815.5,5.00,000.00,024.6,023.9,000.0,032.7,026.3,05.7,0000.0,0002.35,0000.87,0000.55
2024-03-02 19:15:00,SystemResetWarning,0815.4,5.00,000.00,024.6,024.0,000.0,032.7,026.3,05.7,0000.0,0002.69,0000.84,0000.55
2024-03-02 19:16:00,SystemResetWarning,0815.6,5.00,000.00,024.6,024.0,000.0,032.7,026.4,05.2,0000.0,0002.81,0000.86,0000.55
2024-03-02 19:17:00,SystemResetWarning,0815.6,5.00,000.00,024.6,024.0,000.0,032.7,026.3,05.1,0000.0,0003.70,0000.87,0000.54
2024-03-02 19:18:00,SystemResetWarning,0815.4,5.00,000.00,024.7,024.0,000.0,032.7,026.3,05.1,0000.0,0003.78,0000.89,0000.54
2024-03-02 19:19:00,SystemResetWarning,0815.4,4.99,000.00,024.7,024.0,000.0,032.7,026.4,05.3,0000.0,0003.81,0000.89,0000.53
2024-03-02 19:20:00,SystemResetWarning,0815.5,5.00,000.00,024.7,024.0,000.0,032.8,026.4,05.5,0000.0,0003.82,0000.89,0000.52
2024-03-02 19:21:00,SystemResetWarning,0815.5,4.99,000.00,024.7,024.0,000.0,032.8,026.4,05.6,0000.0,0003.87,0000.90,0000.51
2024-03-02 19:22:00,SystemResetWarning,0815.4,4.99,000.00,024.7,024.1,000.0,032.8,026.4,05.3,0000.0,0003.86,0000.89,0000.50
2024-03-02 19:23:00,SystemResetWarning,0815.4,5.00,000.00,024.7,024.1,000.0,032.8,026.5,05.2,0000.0,0003.80,0000.88,0000.49
2024-03-02 19:24:00,SystemResetWarning,0815.3,5.00,000.00,024.7,024.1,000.0,032.8,026.5,05.3,0000.0,0003.52,0000.84,0000.48
2024-03-02 19:25:00,SystemResetWarning,0815.3,5.00,000.00,024.8,024.1,000.0,032.8,026.5,05.2,0000.0,0003.17,0000.86,0000.48
2024-03-02 19:26:00,SystemResetWarning,0815.3,5.00,000.00,024.8,024.1,000.0,032.8,026.5,05.4,0000.0,0002.71,0000.87,0000.48
2024-03-02 19:27:00,SystemResetWarning,0815.2,5.00,000.00,024.8,024.1,000.0,032.8,026.5,05.5,0000.0,0002.73,0000.88,0000.48
2024-03-02 19:28:00,SystemResetWarning,0815.2,5.00,000.00,024.8,024.2,000.0,032.8,026.6,05.6,0000.0,0001.87,0000.86,0000.48
2024-03-02 19:29:00,SystemResetWarning,0815.2,5.00,000.00,024.8,024.2,000.0,032.9,026.6,05.6,0000.0,0001.66,0000.82,0000.48
2024-03-02 19:30:00,SystemResetWarning,0815.1,5.00,000.00,024.8,024.2,000.0,032.9,026.6,05.6,0000.0,0001.88,0000.84,0000.49
2024-03-02 19:31:00,SystemResetWarning,0815.1,5.00,000.00,024.8,024.2,000.0,032.9,026.6,05.5,0000.0,0001.89,0000.83,0000.49
2024-03-02 19:32:00,SystemResetWarning,0815.1,5.00,000.00,024.9,024.2,000.0,032.9,026.6,05.7,0000.0,0001.82,0000.80,0000.48
2024-03-02 19:33:00,SystemResetWarning,0814.9,5.00,000.00,024.9,024.2,000.0,032.9,026.6,05.4,0000.0,0001.94,0000.81,0000.49
2024-03-02 19:34:00,SystemResetWarning,0814.9,5.00,000.00,024.9,024.2,000.0,033.0,026.6,05.6,0000.0,0003.25,0000.88,0000.49
2024-03-02 19:35:00,SystemResetWarning,0814.9,5.00,000.00,024.9,024.2,000.0,033.0,026.6,05.7,0000.0,0003.52,0000.91,0000.49
2024-03-02 19:36:00,SystemResetWarning,0814.9,5.00,000.00,024.9,024.3,000.0,033.0,026.6,05.4,0000.0,0005.26,0000.92,0000.50
2024-03-02 19:37:00,SystemResetWarning,0814.9,5.00,000.00,024.9,024.3,000.0,033.0,026.6,05.2,0000.0,0005.63,0000.90,0000.50
2024-03-02 19:38:00,SystemResetWarning,0814.8,5.00,000.00,024.9,024.3,000.0,033.0,026.7,05.4,0000.0,0005.68,0000.91,0000.49
2024-03-02 19:39:00,SystemResetWarning,0814.8,4.99,000.00,025.0,024.3,000.0,033.0,026.7,05.2,0000.0,0006.06,0000.94,0000.48
2024-03-02 19:40:00,SystemResetWarning,0814.8,5.02,000.00,025.0,024.3,000.0,033.0,026.7,05.2,0000.0,0006.15,0000.92,0000.48
2024-03-02 19:41:00,SystemResetWarning,0814.8,5.00,000.00,025.0,024.3,000.0,033.0,026.7,05.4,0000.0,0005.90,0000.90,0000.48
2024-03-02 19:42:00,SystemResetWarning,0814.8,5.00,000.00,025.0,024.3,000.0,033.1,026.7,05.3,0000.0,0005.91,0000.92,0000.49
2024-03-02 19:43:00,SystemResetWarning,0814.8,5.00,000.00,025.0,024.4,000.0,033.1,026.7,05.4,0000.0,0005.92,0000.92,0000.50
2024-03-02 19:44:00,SystemResetWarning,0814.8,5.00,000.00,025.0,024.4,000.0,033.1,026.8,05.4,0000.0,0005.77,0000.92,0000.50
2024-03-02 19:45:00,SystemResetWarning,0814.8,5.00,000.00,025.0,024.4,000.0,033.1,026.8,05.2,0000.0,0004.62,0000.88,0000.49
2024-03-02 19:46:00,SystemResetWarning,0814.8,5.00,000.00,025.0,024.4,000.0,033.1,026.8,05.3,0000.0,0004.28,0000.84,0000.48
2024-03-02 19:47:00,SystemResetWarning,0814.8,5.00,000.00,025.1,024.4,000.0,033.1,026.7,05.3,0000.0,0002.43,0000.79,0000.47
2024-03-02 19:48:00,SystemResetWarning,0814.8,5.00,000.00,025.1,024.4,000.0,033.1,026.8,05.3,0000.0,0002.17,0000.82,0000.48
2024-03-02 19:49:00,SystemResetWarning,0814.7,4.99,000.00,025.1,024.4,000.0,033.2,026.8,05.2,0000.0,0002.13,0000.81,0000.47
2024-03-02 19:50:00,SystemResetWarning,0814.7,4.99,000.00,025.1,024.4,000.0,033.2,026.8,05.3,0000.0,0002.41,0000.75,0000.46
2024-03-02 19:51:00,SystemResetWarning,0814.5,5.00,000.00,025.1,024.4,000.0,033.2,026.8,05.1,0000.0,0002.80,0000.77,0000.45
2024-03-02 19:52:00,SystemResetWarning,0814.4,5.01,000.00,025.1,024.4,000.0,033.2,026.8,05.1,0000.0,0004.20,0000.75,0000.44
2024-03-02 19:53:00,SystemResetWarning,0814.3,5.00,000.00,025.1,024.4,000.0,033.2,026.8,05.2,0000.0,0004.10,0000.72,0000.43
2024-03-02 19:54:00,SystemResetWarning,0814.4,4.99,000.00,025.1,024.4,000.0,033.2,026.8,05.4,0000.0,0004.22,0000.78,0000.43
2024-03-02 19:55:00,SystemResetWarning,0814.3,4.99,000.00,025.2,024.5,000.0,033.2,026.9,05.3,0000.0,0004.23,0000.76,0000.43
2024-03-02 19:56:00,SystemResetWarning,0814.3,5.01,000.00,025.2,024.5,000.0,033.2,026.9,05.5,0000.0,0004.11,0000.74,0000.43
2024-03-02 19:57:00,SystemResetWarning,0814.3,5.00,000.00,025.2,024.5,000.0,033.2,026.9,05.3,0000.0,0004.08,0000.73,0000.44
2024-03-02 19:58:00,SystemResetWarning,0814.3,4.99,000.00,025.2,024.5,000.0,033.3,026.9,05.5,0000.0,0004.05,0000.72,0000.44
2024-03-02 19:59:00,SystemResetWarning,0814.3,5.00,000.00,025.2,024.5,000.0,033.3,026.9,05.5,0000.0,0003.95,0000.68,0000.43
